Yatton Keynell, United Kingdom

1:30 AM BST on June 21, 2019 (GMT +0100)
Yatton Keynell

Weather History for 03740 - August, 2007

Change the Weather History Date:

Wednesday, August 8, 2007

  Actual Average Record
Temperature  
Mean Temperature 57 °F -  
Max Temperature 68 °F 67 °F - ()
Min Temperature 46 °F 52 °F - ()
Degree Days  
Heating Degree Days 8    
Growing Degree Days 7 (Base 50)    
Moisture  
Dew Point 43 °F    
Average Humidity 60    
Maximum Humidity 94    
Minimum Humidity 26    
Precipitation  
Precipitation 0.00 in 0.08 in - ()
Sea Level Pressure  
Sea Level Pressure 30.14 in    
Wind  
Wind Speed 8 mph ()    
Max Wind Speed 15 mph    
Max Gust Speed -    
Visibility 9.0 miles    
Events      
T = Trace of Precipitation, MM = Missing Value Source: Averaged Metar Reports

Daily Weather History Graph

Daily Weather History Graph

Search for Another Location

Airport or City:

Astronomy

Aug. 08, 2007 Rise Set
Actual Time 5:41 AM BST 8:44 PM BST
Civil Twilight 5:02 AM BST 9:23 PM BST
Nautical Twilight 4:11 AM BST 10:14 PM BST
Astronomical Twilight 3:04 AM BST 11:19 PM BST
Moon 12:01 AM BST (8/8) 6:17 PM BST (8/8)
Length of Visible Light 16h 20m
Length of Day
15h 02m
Waning Crescent, 22% of the Moon is Illuminated
Aug 8
Waning Crescent
Aug 13
New
Aug 21
First Quarter
Aug 28
Full
Sep 4
Last Quarter

Hourly Weather History & Observations

Time (BST) Temp. Windchill Dew Point Humidity Pressure Visibility Wind Dir Wind Speed Gust Speed Precip Events Conditions
12:50 AM 51 °F - 45 °F 72% 30.15 in 22 mi North 9.2 mph - -  
12:50 AM 51.8 °F - 44.6 °F 76% 30.12 in - North 9.2 mph - N/A   Clear
1:50 AM 50.0 °F - 44.6 °F 82% 30.12 in - North 9.2 mph - N/A   Clear
2:50 AM 50.0 °F - 44.6 °F 82% 30.12 in - North 4.6 mph - N/A   Clear
3:50 AM 49 °F - 45 °F 83% 30.16 in 16 mi NNW 8.1 mph - -  
3:50 AM 48.2 °F - 44.6 °F 87% 30.12 in - NNW 8.1 mph - N/A   Clear
4:50 AM 48.2 °F - 44.6 °F 87% 30.12 in - North 8.1 mph - N/A   Clear
5:50 AM 46.4 °F 42.4 °F 44.6 °F 93% 30.15 in - NNW 8.1 mph - N/A   Clear
6:50 AM 47 °F - 45 °F 89% 30.17 in 19 mi NNW 5.8 mph - -   Partly Cloudy
6:50 AM 46.4 °F 43.5 °F 44.6 °F 93% 30.15 in - NNW 5.8 mph - N/A   Clear
7:50 AM 50.0 °F - 48.2 °F 94% 30.15 in - NNW 6.9 mph - N/A   Clear
8:50 AM 55.4 °F - 46.4 °F 72% 30.15 in 6.2 mi North 12.7 mph - N/A   Scattered Clouds
9:50 AM 58 °F - 44 °F 49% 30.17 in 22 mi North 13.8 mph - -   Scattered Clouds
9:50 AM 59.0 °F - 44.6 °F 59% 30.15 in 6.2 mi North 13.8 mph - N/A   Partly Cloudy
10:50 AM 60.8 °F - 39.2 °F 45% 30.15 in 6.2 mi North 13.8 mph - N/A   Partly Cloudy
11:50 AM 62.6 °F - 41.0 °F 45% 30.15 in 6.2 mi North 15.0 mph - N/A   Partly Cloudy
12:50 PM 64 °F - 42 °F 33% 30.15 in 31 mi North 12.7 mph - -   Scattered Clouds
12:50 PM 64.4 °F - 42.8 °F 45% 30.15 in 6.2 mi North 12.7 mph - N/A   Partly Cloudy
1:50 PM 66.2 °F - 41.0 °F 40% 30.15 in 6.2 mi NNW 12.7 mph - N/A   Partly Cloudy
2:50 PM 66.2 °F - 39.2 °F 37% 30.15 in - North 12.7 mph - N/A   Clear
3:50 PM 67 °F - 40 °F 26% 30.14 in 31 mi NNW 10.4 mph - -   Scattered Clouds
3:50 PM 66.2 °F - 39.2 °F 37% 30.12 in - NNW 10.4 mph - N/A   Clear
4:50 PM 66.2 °F - 39.2 °F 37% 30.12 in - NNW 6.9 mph - N/A   Clear
5:50 PM 64.4 °F - 41.0 °F 42% 30.12 in - North 6.9 mph - N/A   Clear
6:50 PM 65 °F - 39 °F 27% 30.14 in 25 mi North 8.1 mph - -   Scattered Clouds
6:50 PM 66.2 °F - 39.2 °F 37% 30.12 in - North 8.1 mph - N/A   Clear
7:50 PM 64.4 °F - 41.0 °F 42% 30.15 in - North 5.8 mph - N/A   Clear
8:50 PM 60.8 °F - 42.8 °F 52% 30.15 in - NNW 3.5 mph - N/A   Clear
9:50 PM 56 °F - 43 °F 50% 30.17 in 22 mi WNW 6.9 mph - -   Scattered Clouds
9:50 PM 55.4 °F - 42.8 °F 63% 30.15 in - WNW 6.9 mph - N/A   Clear
10:50 PM 55.4 °F - 46.4 °F 72% 30.15 in - NW 5.8 mph - N/A   Clear
11:50 PM 55.4 °F - 42.8 °F 63% 30.18 in - NNW 4.6 mph - N/A   Clear